Weather History for Krasnodar, Russia

Change the Weather History Date:

Thursday, March 7, 2013

  Actual Average Record
Temperature  
Mean Temperature 44 °F -  
Max Temperature 57 °F - - ()
Min Temperature 30 °F - - ()
Degree Days  
Heating Degree Days 22    
Moisture  
Dew Point 25 °F    
Average Humidity 55    
Maximum Humidity 87    
Minimum Humidity 20    
Precipitation  
Precipitation 0.00 in 0.06 in - ()
Sea Level Pressure  
Sea Level Pressure 30.23 in    
Wind  
Wind Speed 7 mph ()    
Max Wind Speed 16 mph    
Max Gust Speed 22 mph    
T = Trace of Precipitation, MM = Missing Value Source: Averaged Metar Reports

Daily Weather History Graph

Daily Weather History Graph

Search for Another Location

Airport:

Trip Planner

Search our weather history database for the weather conditions in past years. The results will help you decide how hot, cold, wet, or windy it might be!

Date:

Astronomy

Mar. 07, 2013 Rise Set
Actual Time 7:50 AM MSK 7:18 PM MSK
Civil Twilight 7:21 AM MSK 7:48 PM MSK
Nautical Twilight 6:47 AM MSK 8:22 PM MSK
Astronomical Twilight 6:13 AM MSK 8:56 PM MSK
Moon 4:43 AM MSK (3/7) 2:32 PM MSK (3/7)
Length of Visible Light 12h 26m
Length of Day
11h 28m
Waning Crescent, 24% of the Moon is Illuminated
Mar 7
Waning Crescent
Mar 11
New
Mar 19
First Quarter
Mar 27
Full
Apr 3
Last Quarter

Hourly Weather History & Observations

Time (MSK) Temp. Windchill Dew Point Humidity Pressure Visibility Wind Dir Wind Speed Gust Speed Precip Events Conditions
12:00 AM 30.2 °F 23.5 °F 21.2 °F 69% 30.45 in - SSW 6.7 mph - N/A   Clear
12:30 AM 33.8 °F 26.5 °F 24.8 °F 70% 30.42 in - SSW 8.9 mph - N/A   Clear
1:00 AM 33.8 °F 27.9 °F 24.8 °F 70% 30.42 in - South 6.7 mph - N/A   Clear
1:30 AM 33.8 °F 27.9 °F 26.6 °F 75% 30.39 in - SSE 6.7 mph - N/A   Clear
2:00 AM 33.8 °F 27.9 °F 26.6 °F 75% 30.39 in - SSE 6.7 mph - N/A   Clear
2:30 AM 33.8 °F 27.9 °F 26.6 °F 75% 30.39 in - SSE 6.7 mph - N/A   Clear
3:00 AM 32.0 °F 25.7 °F 26.6 °F 80% 30.39 in - SE 6.7 mph - N/A   Clear
3:30 AM 32.0 °F 24.3 °F 28.4 °F 87% 30.39 in - SSE 8.9 mph - N/A   Clear
4:00 AM 32.0 °F 25.7 °F 28.4 °F 87% 30.36 in - SE 6.7 mph - N/A   Clear
4:30 AM 32.0 °F 25.7 °F 28.4 °F 87% 30.36 in - SE 6.7 mph 13.4 mph N/A   Clear
5:00 AM 32.0 °F 25.7 °F 28.4 °F 87% 30.33 in - SSE 6.7 mph - N/A   Clear
5:30 AM 33.8 °F 27.9 °F 28.4 °F 81% 30.33 in - SSE 6.7 mph - N/A   Clear
6:00 AM 33.8 °F 27.9 °F 28.4 °F 81% 30.33 in - SSE 6.7 mph - N/A   Clear
6:30 AM 33.8 °F 27.9 °F 28.4 °F 81% 30.30 in - SE 6.7 mph - N/A   Clear
7:00 AM 33.8 °F 27.9 °F 28.4 °F 81% 30.30 in - SSE 6.7 mph - N/A   Clear
7:30 AM 33.8 °F 27.9 °F 28.4 °F 81% 30.30 in - SE 6.7 mph - N/A   Clear
8:00 AM 32.0 °F 25.7 °F 28.4 °F 87% 30.30 in - SE 6.7 mph - N/A   Clear
8:30 AM 35.6 °F 28.7 °F 30.2 °F 81% 30.30 in - SE 8.9 mph - N/A   Clear
9:00 AM 37.4 °F 32.2 °F 30.2 °F 75% 30.30 in - SE 6.7 mph - N/A   Clear
9:30 AM 39.2 °F 33.1 °F 30.2 °F 70% 30.30 in - SE 8.9 mph - N/A   Clear
10:00 AM 39.2 °F 33.1 °F 30.2 °F 70% 30.30 in - SE 8.9 mph 15.7 mph N/A   Clear
10:30 AM 41.0 °F 35.4 °F 30.2 °F 65% 30.27 in - SE 8.9 mph - N/A   Clear
11:00 AM 42.8 °F 36.7 °F 30.2 °F 61% 30.27 in - SE 11.2 mph - N/A   Clear
11:30 AM 44.6 °F 39.8 °F 30.2 °F 57% 30.27 in - SE 8.9 mph - N/A   Clear
12:00 PM 48.2 °F - 26.6 °F 43% 30.24 in - ESE 6.7 mph - N/A   Clear
12:30 PM 51.8 °F - 24.8 °F 35% 30.24 in - SE 6.7 mph - N/A   Clear
1:00 PM 53.6 °F - 21.2 °F 28% 30.21 in - SSW 6.7 mph - N/A   Clear
1:30 PM 55.4 °F - 19.4 °F 25% 30.21 in - SW 11.2 mph 17.9 mph N/A   Clear
2:00 PM 57.2 °F - 19.4 °F 23% 30.18 in - SSW 11.2 mph - N/A   Clear
2:30 PM 57.2 °F - 19.4 °F 23% 30.18 in - SSW 11.2 mph 17.9 mph N/A   Clear
3:00 PM 57.2 °F - 17.6 °F 21% 30.15 in - SSW 13.4 mph 20.1 mph N/A   Clear
3:30 PM 57.2 °F - 17.6 °F 21% 30.15 in - SW 13.4 mph 20.1 mph N/A   Clear
4:00 PM 57.2 °F - 19.4 °F 23% 30.12 in - SW 13.4 mph 20.1 mph N/A   Clear
4:30 PM 57.2 °F - 15.8 °F 20% 30.12 in - SSW 15.7 mph 22.4 mph N/A   Clear
5:00 PM 57.2 °F - 19.4 °F 23% 30.09 in - SSW 15.7 mph - N/A   Clear
5:30 PM 57.2 °F - 19.4 °F 23% 30.09 in - SSW 11.2 mph 17.9 mph N/A   Clear
6:00 PM 55.4 °F - 21.2 °F 26% 30.09 in - SW 13.4 mph - N/A   Clear
6:30 PM 53.6 °F - 23.0 °F 30% 30.09 in - SW 13.4 mph - N/A   Clear
7:00 PM 51.8 °F - 21.2 °F 30% 30.09 in - SSW 11.2 mph - N/A   Clear
7:30 PM 48.2 °F - 21.2 °F 34% 30.09 in - SW 11.2 mph - N/A   Clear
8:00 PM 46.4 °F 43.0 °F 21.2 °F 37% 30.06 in - WSW 6.7 mph - N/A   Clear
8:30 PM 44.6 °F 40.8 °F 21.2 °F 39% 30.06 in - SW 6.7 mph - N/A   Clear
9:00 PM 41.0 °F 38.1 °F 23.0 °F 49% 30.06 in - West 4.5 mph - N/A   Clear
9:30 PM 41.0 °F 38.1 °F 23.0 °F 49% 30.06 in - WSW 4.5 mph - N/A   Clear
10:00 PM 39.2 °F 36.0 °F 23.0 °F 52% 30.06 in - South 4.5 mph - N/A   Clear
10:30 PM 37.4 °F - 23.0 °F 56% 30.04 in - Variable 2.2 mph - N/A   Clear
11:00 PM 35.6 °F - 23.0 °F 60% 30.04 in - Variable 2.2 mph - N/A   Clear
11:30 PM 37.4 °F 33.9 °F 24.8 °F 60% 30.04 in - North 4.5 mph - N/A   Clear